Private Wetterstation Kalkriese

Lat.: 52° 24' 26" Nord • Long.: 8° 04' 41" Ost • Höhe: 57 m ü. NN
Sonntag, 26. Mai 2024 • 22:10:29 (UTC+2)

Tagesübersicht
Sonntag, 26. Mai 2024


Werte bei Min., Max., etc. sind Tagesdaten (Beginn 00:00 Uhr), Diagramme zeigen den Verlauf der letzten 24 Stunden.
Wert in eckigen Klammern Min., Max., etc. der letzten 24 Std.

Letzte / Nächste Aktualisierung: 21:15 / 22:15

Außentemperatur (2 m ü. Erdboden)

 

Bodentemperatur (5 cm ü. Erdboden)

Minimum: 10,2 °C • 05:40 [ 10,2 °C • 05:40 ]   Minimum: 5,6 °C • 04:55 [ 5,6 °C • 04:55 ]
Maximum: 23,9 °C • 16:55 [ 23,9 °C • 16:55 ]   Maximum: 35,6 °C • 12:05 [ 35,6 °C • 12:05 ]
Durchschnitt: 17,6 °C [ 17,1 °C ]   Durchschnitt: 20,4 °C [ 17,1 °C ]
 
mini_currentt   mini_currentt2

Taupunkt

 

Windchill

Minimum: 9,9 °C • 05:35 [ 9,9 °C • 05:35 ]   Minimum: 10,5 °C • 05:35 [ 10,5 °C • 05:35 ]
Maximum: 16,7 °C • 11:40 [ 16,7 °C • 11:40 ]   Maximum: 23,8 °C • 16:50 [ 23,8 °C • 16:50 ]
Durchschnitt: 13,6 °C [ 13,5 °C ]   Durchschnitt: 17,6 °C [ 17,1 °C ]
 
mini_currenttp   mini_currentwc

Außenluftfeuchtigkeit

 

Luftdruck

Minimum: 56 % • 16:30 [ 56 % • 16:30 ]   Minimum: 1011,6 hPa • 17:35 [ 1011,6 hPa • 17:35 ]
Maximum: 97 % • 06:40 [ 97 % • 06:40 ]   Maximum: 1016,4 hPa • 00:10 [ 1016,4 hPa • 00:10 ]
Durchschnitt: 79 %   Durchschnitt: 1014,4 hPa
 
mini_currentf   mini_currentd

Niederschlag

 

 

heutiger Tag: 4,6 l/m²   akt. Woche: 20,0 l/m²
letzten 24 Std.: 4,6 l/m²   akt. Monat: 41,8 l/m²
Regendauer Tag: 15 Minuten   akt. Jahr: 363,8 l/m²
 
mini_currentr   mini_currentxt

Windgeschwindigkeit

 

Windböen

Maximum: 32,3 km/h • 5 Bft • S-SO • 18:05 [ 32,3 km/h • 18:05 ]   Maximum: 54,7 km/h • 7 Bft • S-SO • 18:05
Durchschnitt: 6,7 km/h • 2 Bft   Durchschnitt: 11,1 km/h • 2 Bft
Dom. Windrichtung: SW   Dom. Windrichtung: SW
 
mini_currentw   mini_currentwb
 
mini_currentwr   mini_currentwdg

Windrichtung • Windstärke • Windböen

 

 

ddis_f_current   ddis_current
 
windbft_current    

Wolkenuntergrenze (berechnet)

 

Theta-E / Äquivalenttemperatur

mini_currentcl   mini_currentt7


Wetterdaten Tagesverlauf

Stundenwerte akt. Tag
 
Uhrzeit Aussen-
temp.
+2 m
Boden-
temp.
+5 cm
ThetaE
 
 
Luft-
feuchte
 
Luft-
druck
 
Wind-
geschw.
 
Wind-
richtung
 
Solar
 
 
UV-I
 
 
Wolken-
untergrenze
 
Schnee-
fallgrenze
 
00:00 12,8 °C 7,2 °C 33,9 °C 93 % 1016,3 hPa 0,0 km/h SW 0 W/m² 0,0 138,0 m 2060,0 m
01:00 12,6 °C 10,0 °C 33,6 °C 94 % 1016,3 hPa 0,0 km/h SW 0 W/m² 0,0 118,0 m 2040,0 m
02:00 12,7 °C 7,8 °C 35,0 °C 95 % 1015,9 hPa 0,0 km/h SW 0 W/m² 0,0 98,0 m 2130,0 m
03:00 11,8 °C 7,2 °C 32,6 °C 95 % 1015,8 hPa 0,0 km/h SW 0 W/m² 0,0 97,0 m 1970,0 m
04:00 11,7 °C 7,2 °C 32,0 °C 96 % 1015,7 hPa 0,0 km/h O 0 W/m² 0,0 97,0 m 1920,0 m
05:00 10,9 °C 5,6 °C 30,6 °C 96 % 1015,7 hPa 0,0 km/h O 0 W/m² 0,0 77,0 m 1810,0 m
06:00 10,8 °C 6,7 °C 29,4 °C 96 % 1015,5 hPa 0,0 km/h O 19 W/m² 0,0 76,0 m 1730,0 m
07:00 12,9 °C 17,8 °C 33,1 °C 97 % 1015,5 hPa 0,0 km/h O 132 W/m² 0,0 58,0 m 1990,0 m
08:00 16,4 °C 26,1 °C 41,9 °C 92 % 1015,5 hPa 5,2 km/h O 293 W/m² 0,7 100,0 m 2580,0 m
09:00 17,7 °C 26,1 °C 43,6 °C 83 % 1015,6 hPa 3,8 km/h O-NO 327 W/m² 1,2 390,0 m 2740,0 m
10:00 19,8 °C 31,7 °C 45,1 °C 78 % 1015,4 hPa 6,5 km/h O 576 W/m² 2,4 516,0 m 2850,0 m
11:00 20,6 °C 30,6 °C 48,2 °C 74 % 1015,0 hPa 8,4 km/h SO 179 W/m² 3,0 628,0 m 3060,0 m
12:00 22,2 °C 34,4 °C 49,5 °C 63 % 1014,6 hPa 13,7 km/h SO 833 W/m² 4,4 773,0 m 3170,0 m
13:00 23,3 °C 35,6 °C 47,9 °C 62 % 1014,2 hPa 12,6 km/h S-SO 910 W/m² 4,6 988,0 m 3110,0 m
14:00 23,0 °C 31,1 °C 49,3 °C 60 % 1013,5 hPa 11,9 km/h SO 371 W/m² 3,1 1129,0 m 3210,0 m
15:00 23,1 °C 30,6 °C 47,7 °C 58 % 1013,1 hPa 10,4 km/h SO 493 W/m² 2,9 1089,0 m 3100,0 m
16:00 22,8 °C 28,3 °C 49,1 °C 63 % 1012,6 hPa 9,9 km/h SO 368 W/m² 2,1 863,0 m 3160,0 m
17:00 23,3 °C 30,0 °C 50,0 °C 58 % 1011,8 hPa 14,9 km/h SO 395 W/m² 1,9 1096,0 m 3250,0 m
18:00 22,1 °C 21,7 °C 46,5 °C 60 % 1012,0 hPa 17,0 km/h SO 77 W/m² 0,0 1085,0 m 3020,0 m
19:00 18,9 °C 18,9 °C 46,3 °C 83 % 1011,6 hPa 11,9 km/h SO 155 W/m² 0,5 417,0 m 2900,0 m
20:00 18,8 °C 18,3 °C 45,3 °C 80 % 1012,0 hPa 3,9 km/h S-SO 69 W/m² 0,0 466,0 m 2850,0 m
21:00 17,6 °C 15,6 °C 41,2 °C 76 % 1012,3 hPa 3,6 km/h SW 15 W/m² 0,0 588,0 m 2610,0 m
22:00 -- °C -- °C -- °C -- % -- hPa -- km/h -- -- W/m² -- -- m -- m
23:00 -- °C -- °C -- °C -- % -- hPa -- km/h -- -- W/m² -- -- m -- m


Wetterdaten Verlauf der letzten 24 Stunden

Stundenwerte
 
Uhrzeit Aussen-
temp.
+2 m
Boden-
temp.
+5 cm
ThetaE
 
 
Luft-
feuchte
 
Luft-
druck
 
Wind-
geschw.
 
Wind-
richtung
 
Solar
 
 
UV-I
 
 
Wolken-
untergrenze
 
Schnee-
fallgrenze
 
20:00 (vor 1 Std.) 18,7 °C 17,2 °C 45,4 °C 79 % 1012,2 hPa 10,0 km/h S 21 W/m² 0,0 441,0 m 2850,0 m
19:00 (vor 2 Std.) 19,3 °C 18,9 °C 46,7 °C 80 % 1011,8 hPa 10,2 km/h SO 134 W/m² 0,0 369,0 m 2920,0 m
18:00 (vor 3 Std.) 17,2 °C 16,1 °C 46,6 °C 80 % 1012,2 hPa 13,5 km/h SO 164 W/m² 0,4 1017,0 m 3020,0 m
17:00 (vor 4 Std.) 23,1 °C 28,9 °C 48,7 °C 59 % 1011,8 hPa 14,9 km/h SO 363 W/m² 1,7 1092,0 m 3170,0 m
16:00 (vor 5 Std.) 23,1 °C 29,4 °C 49,6 °C 60 % 1012,4 hPa 12,2 km/h S-SO 492 W/m² 2,2 928,0 m 3200,0 m
15:00 (vor 6 Std.) 23,3 °C 29,4 °C 48,2 °C 57 % 1013,0 hPa 7,6 km/h S-SO 411 W/m² 2,6 1091,0 m 3140,0 m
14:00 (vor 7 Std.) 22,6 °C 28,9 °C 48,8 °C 59 % 1013,5 hPa 10,5 km/h S-SO 392 W/m² 2,5 1024,0 m 3160,0 m
13:00 (vor 8 Std.) 23,0 °C 34,4 °C 50,4 °C 63 % 1014,0 hPa 13,6 km/h S-SO 721 W/m² 4,1 963,0 m 3260,0 m
12:00 (vor 9 Std.) 21,9 °C 27,8 °C 49,5 °C 63 % 1014,4 hPa 15,4 km/h O-SO 544 W/m² 3,3 834,0 m 3170,0 m
11:00 (vor 10 Std.) 20,8 °C 31,7 °C 48,8 °C 75 % 1014,9 hPa 9,7 km/h O-SO 543 W/m² 3,2 602,0 m 3100,0 m
10:00 (vor 11 Std.) 19,8 °C 27,8 °C 47,3 °C 75 % 1015,3 hPa 14,4 km/h O-SO 494 W/m² 2,4 366,0 m 2720,0 m
9:00 (vor 12 Std.) 18,4 °C 28,9 °C 43,4 °C 81 % 1015,7 hPa 8,5 km/h O-SO 472 W/m² 1,6 366,0 m 2720,0 m
8:00 (vor 13 Std.) 16,9 °C 27,8 °C 42,6 °C 88 % 1015,5 hPa 3,9 km/h O-NO 335 W/m² 0,8 163,0 m 2640,0 m
7:00 (vor 14 Std.) 13,8 °C 23,3 °C 35,0 °C 97 % 1015,4 hPa 0,0 km/h O 169 W/m² 0,0 58,0 m 2130,0 m
6:00 (vor 15 Std.) 11,3 °C 7,2 °C 29,9 °C 96 % 1015,6 hPa 0,0 km/h O 24 W/m² 0,0 77,0 m 1760,0 m
5:00 (vor 16 Std.) 11,1 °C 5,6 °C 30,1 °C 96 % 1015,6 hPa 0,0 km/h O 0 W/m² 0,0 77,0 m 1780,0 m
4:00 (vor 17 Std.) 11,4 °C 6,7 °C 31,9 °C 96 % 1015,7 hPa 0,0 km/h O 0 W/m² 0,0 77,0 m 1910,0 m
3:00 (vor 18 Std.) 11,6 °C 7,2 °C 32,0 °C 95 % 1015,9 hPa 0,0 km/h SW 0 W/m² 0,0 97,0 m 1920,0 m
2:00 (vor 19 Std.) 12,7 °C 7,2 °C 34,1 °C 95 % 1015,8 hPa 0,0 km/h SW 0 W/m² 0,0 98,0 m 2070,0 m
1:00 (vor 20 Std.) 13,1 °C 11,1 °C 33,6 °C 95 % 1016,1 hPa 0,0 km/h SW 0 W/m² 0,0 118,0 m 2040,0 m
0:00 (vor 21 Std.) 12,6 °C 7,2 °C 33,9 °C 93 % 1016,4 hPa 0,0 km/h SW 0 W/m² 0,0 138,0 m 2060,0 m
23:00 (vor 22 Std.) 13,6 °C 7,8 °C 35,5 °C 91 % 1015,9 hPa 0,0 km/h SW 0 W/m² 0,0 202,0 m 2180,0 m
22:00 (vor 23 Std.) 15,1 °C 8,9 °C 38,4 °C 85 % 1015,6 hPa 0,0 km/h SW 0 W/m² 0,0 360,0 m 2390,0 m
21:00 (vor 24 Std.) 15,7 °C 9,4 °C 38,8 °C 83 % 1015,6 hPa 1,7 km/h SW 0 W/m² 0,0 408,0 m 2430,0 m